{"data":{"norad_id":59659,"intl_designator":"2024-084F","name":"STARLINK-31881","alt_names":[],"object_type":"PAYLOAD","status":"ACTIVE","operator":null,"country":"US","launch_date":"2024-05-06","launch_site_code":"AFETR","launch_vehicle":null,"mission":null,"orbit_class":"UNKNOWN","rcs_meters":null,"size_class":null,"mass_kg":null,"dimensions":null,"purposes":["comms"],"wikipedia_slug":null,"has_3d_model":false,"image_url":null,"decayed_at":null,"tle_current":{"epoch":"2026-05-24T21:44:12.638112Z","epoch_age_seconds":93927,"freshness":"FRESH","line1":"1 59659U 24084F   26144.90570183 -.00000607  00000+0 -12539-4 0  9990","line2":"2 59659  43.0033 327.5430 0001230 257.2884 102.7830 15.27575312116079","mean_motion":15.27575312,"eccentricity":0.000123,"inclination_deg":43.0033,"raan_deg":327.543,"arg_perigee_deg":257.2884,"mean_anomaly_deg":102.783,"bstar":-1.2539e-5,"rev_number":11607,"period_min":94.267038010366,"perigee_km":482.21920601761,"apogee_km":483.90706125049,"semimajor_km":6861.2001336341,"source":"CELESTRAK","updated_at":"2026-05-25T13:38:19.018500Z"}}}